Mason City, IA

5:21 PM CST on December 18, 2017 (GMT -0600)
Mason City Municipal

Weather History for KMCW - October, 2011

Change the Weather History Date:

Monday, October 17, 2011

  Actual Average Record
Temperature  
Mean Temperature 46 °F 48 °F  
Max Temperature 58 °F 60 °F 85 °F (1947)
Min Temperature 33 °F 36 °F 18 °F (1976)
Degree Days  
Heating Degree Days 19 17  
Month to date heating degree days 129 243  
Since 1 July heating degree days 352 456  
Cooling Degree Days 0 0  
Month to date cooling degree days 15 2  
Year to date cooling degree days 789 612  
Moisture  
Dew Point 29 °F    
Average Humidity 56    
Maximum Humidity 82    
Minimum Humidity 30    
Precipitation  
Precipitation 0.00 in 0.08 in 1.23 in (1994)
Month to date precipitation 0.58 1.46  
Year to date precipitation 20.69 31.09  
Snow  
Snow 0.00 in 0.00 in 0.30 in (1990)
Month to date snowfall 0.0 0.1  
Since 1 July snowfall 0.0 0.1  
Since 1 September snowfall 0.0 0.1  
Snow Depth 0.00 in    
Sea Level Pressure  
Sea Level Pressure 29.94 in    
Wind  
Wind Speed 13 mph (WNW)    
Max Wind Speed 26 mph    
Max Gust Speed 32 mph    
Visibility 10 miles    
Events      
T = Trace of Precipitation, MM = Missing Value Source: NWS Daily Summary

Daily Weather History Graph

Daily Weather History Graph

Search for Another Location

Airport or City:

Trip Planner

Search our weather history database for the weather conditions in past years. The results will help you decide how hot, cold, wet, or windy it might be!

Date:

Astronomy

Oct. 17, 2011 Rise Set
Actual Time 7:29 AM CDT 6:27 PM CDT
Civil Twilight 7:00 AM CDT 6:56 PM CDT
Nautical Twilight 6:27 AM CDT 7:29 PM CDT
Astronomical Twilight 5:54 AM CDT 8:02 PM CDT
Moon 10:02 PM CDT (10/17) 12:42 PM CDT (10/17)
Length of Visible Light 11h 55m
Length of Day
10h 58m
Waning Gibbous, 74% of the Moon is Illuminated
Oct 17
Waning Gibbous
Oct 19
Last Quarter
Oct 26
New
Nov 2
First Quarter
Nov 10
Full

Hourly Weather History & Observations

Time (CDT) Temp. Windchill Dew Point Humidity Pressure Visibility Wind Dir Wind Speed Gust Speed Precip Events Conditions
12:53 AM 37.9 °F 30.9 °F 30.0 °F 73% 29.97 in 10.0 mi West 10.4 mph - N/A   Clear
1:53 AM 36.0 °F 29.0 °F 28.9 °F 76% 29.97 in 10.0 mi West 9.2 mph - N/A   Clear
2:53 AM 35.1 °F 27.9 °F 28.9 °F 78% 29.97 in 10.0 mi West 9.2 mph - N/A   Clear
3:53 AM 35.1 °F 27.9 °F 28.9 °F 78% 29.95 in 10.0 mi West 9.2 mph - N/A   Clear
4:53 AM 33.8 °F 27.0 °F 28.4 °F 81% 29.95 in 10.0 mi West 8.1 mph - N/A   Clear
5:53 AM 34.0 °F 25.5 °F 28.9 °F 82% 29.96 in 10.0 mi West 11.5 mph - N/A   Clear
6:53 AM 34.0 °F 26.6 °F 28.9 °F 82% 29.96 in 10.0 mi West 9.2 mph - N/A   Clear
7:53 AM 36.0 °F 28.5 °F 30.0 °F 79% 29.96 in 10.0 mi West 10.4 mph - N/A   Clear
8:53 AM 39.0 °F 32.3 °F 32.0 °F 76% 29.96 in 10.0 mi West 10.4 mph - N/A   Clear
9:53 AM 45.0 °F 38.2 °F 33.1 °F 63% 29.96 in 10.0 mi West 15.0 mph - N/A   Clear
10:53 AM 50.0 °F - 33.1 °F 52% 29.97 in 10.0 mi West 17.3 mph 20.7 mph N/A   Clear
11:53 AM 51.8 °F - 30.2 °F 44% 29.95 in 10.0 mi WNW 18.4 mph - N/A   Clear
12:53 PM 55.9 °F - 30.9 °F 39% 29.94 in 10.0 mi West 19.6 mph 26.5 mph N/A   Clear
1:53 PM 57.9 °F - 27.0 °F 31% 29.92 in 10.0 mi WNW 20.7 mph - N/A   Clear
2:53 PM 57.0 °F - 27.0 °F 32% 29.91 in 10.0 mi WNW 18.4 mph 29.9 mph N/A   Clear
3:53 PM 55.9 °F - 28.0 °F 34% 29.90 in 10.0 mi WNW 21.9 mph - N/A   Clear
4:53 PM 55.9 °F - 24.1 °F 29% 29.88 in 10.0 mi WNW 24.2 mph 31.1 mph N/A   Clear
5:53 PM 54.0 °F - 26.1 °F 34% 29.89 in 10.0 mi NW 15.0 mph - N/A   Clear
6:53 PM 50.0 °F - 26.6 °F 40% 29.90 in 10.0 mi WNW 11.5 mph - N/A   Clear
7:53 PM 42.8 °F 37.5 °F 26.6 °F 53% 29.91 in 10.0 mi West 9.2 mph - N/A   Clear
8:53 PM 42.1 °F 37.1 °F 28.0 °F 58% 29.93 in 10.0 mi West 8.1 mph - N/A   Clear
9:53 PM 42.1 °F 36.6 °F 28.0 °F 58% 29.93 in 10.0 mi West 9.2 mph - N/A   Clear
10:53 PM 44.1 °F 38.6 °F 28.9 °F 55% 29.92 in 10.0 mi West 10.4 mph - N/A   Clear
11:53 PM 42.1 °F 36.1 °F 30.0 °F 62% 29.92 in 10.0 mi West 10.4 mph - N/A   Clear